Taylor Fork

This weather station provides wind speed, gust or max wind speed, and wind direction at 9460 ft. near Pika Point above Sunlight Basin.  

This data can be used with temperature and precipitation data from the Carrot Basin SNOTEL site. If the data below is not displayed or up to date, view data here.

Elevation
9460ft
Jump to table bottom
Date Time Temperature
deg F
RH, % Wind Speed Wind Gust Wind Direction
02/29/24 06:00 14.3 95 23 31 SW - 207
02/29/24 05:00 14.0 94 21 28 SW - 210
02/29/24 04:00 12.9 94 20 26 S - 195
02/29/24 03:00 13.3 94 20 30 S - 201
02/29/24 02:00 13.5 94 21 30 SW - 207
02/29/24 01:00 12.4 94 17 25 S - 200
02/29/24 00:00 12.4 94 22 35 SW - 204
02/28/24 23:00 12.1 94 25 36 SW - 204
02/28/24 22:00 12.1 94 23 36 SW - 208
02/28/24 21:00 12.4 94 21 30 SW - 211
02/28/24 20:00 12.4 94 17 26 SW - 218
02/28/24 19:00 12.2 94 20 30 SW - 207
02/28/24 18:00 11.8 93 22 34 S - 200
02/28/24 17:00 11.2 93 22 31 SW - 205
02/28/24 16:00 10.8 93 20 28 SW - 207
02/28/24 15:00 11.0 92 21 31 S - 194
02/28/24 14:00 10.2 92 22 35 S - 195
02/28/24 13:00 10.1 91 26 37 S - 194
02/28/24 12:00 11.3 91 25 37 SW - 203
02/28/24 11:00 9.6 91 25 38 SW - 205
02/28/24 10:00 10.4 91 21 37 SW - 211
02/28/24 09:00 7.5 91 23 36 SW - 205
02/28/24 08:00 4.7 91 20 28 SW - 203
02/28/24 07:00 3.9 91 21 28 SW - 205
02/28/24 06:00 2.5 90 17 24 SW - 210
02/28/24 05:00 2.7 90 18 27 SW - 212
02/28/24 04:00 1.9 90 16 31 SW - 222
02/28/24 03:00 2.5 90 16 29 SW - 243
02/28/24 02:00 0.7 90 19 31 SW - 236
02/28/24 01:00 1.3 89 20 30 SW - 239
02/28/24 00:00 0.2 89 19 32 SW - 233
02/27/24 23:00 0.6 89 20 35 W - 252
02/27/24 22:00 0.9 89 22 34 W - 267
02/27/24 21:00 0.9 89 23 37 W - 284
02/27/24 20:00 -0.6 89 21 32 W - 291
02/27/24 19:00 -0.4 89 21 31 W - 290
02/27/24 18:00 -0.2 89 20 36 NW - 299
02/27/24 17:00 0.2 89 22 39 NW - 302
02/27/24 16:00 1.3 89 23 38 NW - 305
02/27/24 15:00 0.8 89 23 46 NW - 308
02/27/24 14:00 2.1 88 25 43 NW - 305
02/27/24 13:00 1.9 88 21 38 NW - 302
02/27/24 12:00 1.6 88 13 32 W - 288
02/27/24 11:00 3.4 88 18 27 W - 287
02/27/24 10:00 4.2 88 10 17 W - 263
02/27/24 09:00 3.5 88 9 16 W - 249
02/27/24 08:00 1.2 89 8 15 NW - 294
02/27/24 07:00 -0.1 89 9 18 NW - 301
02/27/24 06:00 -0.7 90 13 22 NW - 301
02/27/24 05:00 -0.4 90 12 18 NW - 295